Regional Weather Roundup
Issued by NWS

Home | Current Version | Previous Version | Text Only | Print | Product List | Glossary On
Versions: 1 2 3 4 5 6 7 8 9 10 11 12 13 14 15 16 17 18 19 20 21 22 23 24 25 26 27 28 29 30 31 32 33 34 35 36 37 38 39 40 41 42 43 44 45 46 47 48 49 50
000
ASUS46 KPQR 061010
RWROR

OREGON REGIONAL WEATHER ROUNDUP
NATIONAL WEATHER SERVICE PORTLAND OR
300 AM PDT MON JUL 06 2015

NOTE: "FAIR" INDICATES FEW OR NO CLOUDS BELOW 12,000 FEET WITH
NO SIGNIFICANT WEATHER AND/OR OBSTRUCTIONS TO VISIBILITY.

ORZ001>013-061100-
NORTHWEST OREGON


CITY           SKY/WX    TMP DP  RH WIND       PRES   REMARKS
ASTORIA        CLOUDY    57  54  89 SW8       29.99R
NEWPORT        MOCLDY    54  52  94 CALM      30.02S
PORTLAND       CLEAR     66  56  70 CALM      29.95R
VANCOUVER WA   CLEAR     65  55  70 CALM      29.95R
SCAPPOOSE      CLEAR     58  55  90 CALM      29.95R
HILLSBORO      CLEAR     60  51  72 CALM      29.94R
AURORA         CLEAR     61  54  77 CALM      29.96R
MCMINNVILLE    CLEAR     57  51  80 W3        29.96R
SALEM          CLEAR     62  51  67 CALM      29.95R
CORVALLIS      CLEAR     55  52  88 NW15      29.98R
EUGENE         CLEAR     61  54  77 SW9       29.97R
$$

ORZ021-028-061100-
SOUTHWEST OREGON


CITY           SKY/WX    TMP DP  RH WIND       PRES   REMARKS
NORTH BEND     CLOUDY    57  57 100 SW5       30.01R
BROOKINGS      FOG       55  55 100 VRB3      30.03R VSB 1/2
ROSEBURG       CLEAR     69  55  60 CALM      29.95R
SEXTON SUMMIT  CLEAR     70  47  43 CALM      30.08S
MEDFORD        PTCLDY    74  56  53 S3        29.95R
$$

ORZ014>016-041-061100-
COLUMBIA GORGE


CITY           SKY/WX    TMP DP  RH WIND       PRES   REMARKS
TROUTDALE      CLEAR     66  56  70 W3        29.94R
THE DALLES     CLEAR     78  52  40 NW8       29.87R
$$

ORZ029>031-041-044-049-050-061>064-502-503-505>511-061100-
EASTERN OREGON


CITY           SKY/WX    TMP DP  RH WIND       PRES   REMARKS
REDMOND        CLEAR     60  40  47 S5        30.03R
BEND             N/A    N/A N/A N/A MISG        N/A
PRINEVILLE     CLEAR     57  39  51 CALM      30.03S
KLAMATH FALLS  PTCLDY    55  48  77 CALM      30.11S
LAKEVIEW       MOCLDY    52  46  82 NW6       30.15S
HERMISTON      CLEAR     68  43  40 CALM      29.87R
PENDLETON      CLEAR     70  42  36 SW6       29.91R
JOHN DAY       PTCLDY    65  45  48 SE8       30.07R
MEACHAM        CLEAR     50  44  80 CALM      30.07R
LA GRANDE      CLEAR     63  39  42 CALM      30.01R
BAKER CITY     CLEAR     51  46  83 N5        30.05R
BURNS          MOCLDY    60  48  64 NW3       30.11S
ROME             N/A     66  50  56 SE8       30.09R
ONTARIO        PTCLDY    64  55  72 NW3       29.97R
$$



USA.gov is the U.S. government's official web portal to all federal, state and local government web resources and services.